This demonstration page uses our WeatherBlox Daily Observations layout. Learn more.

Left ArrowRight Arrow

Hourly Observations for May 29, 2018

Temp ( °F °C ) Dew Point ( °F °C ) Humidity (%) Winds ( mph kmh ) Pressure ( in mb ) Visibility ( mi km ) Precip ( " mm )
12:53 am 00:53 Mostly Cloudy with Light Rain 64 17.8 59 15 84 84 WSW 16 26 29.94 1014 10 16 0.00 0.03
1:53 am 01:53 Mostly Cloudy 62 16.7 59 15 90 90 W 10 17 29.92 1013 10 16 0.00 0.03
2:53 am 02:53 Mostly Cloudy with Light Rain 62 16.7 60 15.6 93 93 VRB 3 6 29.89 1012 10 16 0.00 0.03
3:53 am 03:53 Clear 61 16.1 60 15.6 97 97 W 6 9 29.84 1011 10 16 0.00 0.03
4:53 am 04:53 Partly Cloudy 61 16.1 60 15.6 97 97 SE 3 6 29.83 1010 10 16 0.00 0.00
5:53 am 05:53 Mostly Clear 62 16.7 60 15.6 93 93 SE 7 11 29.85 1011 10 16 0.00 0.00
6:53 am 06:53 Mostly Cloudy 61 16.1 60 15.6 97 97 ESE 3 6 29.87 1012 10 16 0.00 0.03
7:53 am 07:53 Sunny 62 16.7 60 15.6 93 93 Calm 29.89 1012 10 16 0.00 0.00
8:53 am 08:53 Partly Cloudy 65 18.3 61 16.1 87 87 SW 3 6 29.88 1012 10 16 0.00 0.00
9:53 am 09:53 Sunny 66 18.9 60 15.6 81 81 S 5 7 29.88 1012 10 16 0.00 0.00
10:53 am 10:53 Sunny 68 20 60 15.6 76 76 VRB 3 6 29.86 1011 10 16 0.00 0.00
11:53 am 11:53 Cloudy with Light Rain 67 19.4 60 15.6 79 79 SSW 6 9 29.88 1012 10 16 0.00 0.03
12:53 pm 12:53 Mostly Sunny 67 19.4 63 17.2 87 87 ESE 5 7 29.88 1012 10 16 0.01 0.25
1:53 pm 13:53 Partly Cloudy 67 19.4 61 16.1 81 81 ESE 7 11 29.84 1011 10 16 0.00 0.03
2:53 pm 14:53 Mostly Cloudy 67 19.4 59 15 76 76 Calm 29.82 1010 10 16 0.00 0.00
3:53 pm 15:53 Cloudy with Light Rain 70 21.1 62 16.7 76 76 NNW 8 13 29.81 1010 10 16 0.00 0.03
4:28 pm 16:28 Mostly Cloudy with Nearby Thunderstorms 69 20.6 61 16.1 76 76 N 8 13 29.77 1008 10 16 0.00 0.03
4:53 pm 16:53 Cloudy with Thunderstorms 69 20.6 63 17.2 81 81 NNW 6 9 29.82 1010 10 16 0.01 0.25
5:15 pm 17:15 Mostly Cloudy 69 20.6 61 16.1 76 76 NNE 6 9 29.77 1008 10 16 0.00 0.03
5:35 pm 17:35 Mostly Cloudy with Nearby Thunderstorms 68 20 63 17.2 84 84 ENE 6 9 29.77 1008 10 16 0.01 0.25
5:53 pm 17:53 Cloudy with Nearby Thunderstorms 67 19.4 64 17.8 91 91 NNE 5 7 29.80 1009 6 10 0.05 1.27
6:01 pm 18:01 Cloudy with Thunderstorms 66 18.9 63 17.2 90 90 N 7 11 29.77 1008 5 8 0.03 0.76
6:53 pm 18:53 Cloudy with Nearby Thunderstorms 65 18.3 62 16.7 90 90 N 9 15 29.77 1008 8 13 0.15 3.81
7:21 pm 19:21 Cloudy with Light Rain 63 17.2 61 16.1 93 93 NW 14 22 29.74 1007 10 16 0.02 0.51
7:28 pm 19:28 Cloudy with Nearby Thunderstorms 63 17 61 16 94 94 NNW 14 22 29.74 1007 10 16 0.00 0.00
7:50 pm 19:50 Cloudy with Thunderstorms 63 17 59 15 88 88 N 9 15 29.74 1007 5 8 0.00 0.00
7:53 pm 19:53 Cloudy with Thunderstorms 62 16.7 59 15 90 90 N 8 13 29.76 1008 6 10 0.05 1.27
8:20 pm 20:20 Cloudy with Light Rain 62 16.7 60 15.6 93 93 E 7 11 29.71 1006 10 16 0.01 0.25
8:29 pm 20:29 Cloudy with Nearby Thunderstorms 62 16.7 60 15.6 93 93 NE 8 13 29.71 1006 10 16 0.01 0.25
8:44 pm 20:44 Cloudy with Thunderstorms 63 17 61 16 94 94 Calm 29.71 1006 10 16 0.00 0.00
8:53 pm 20:53 Cloudy with Thunderstorms 63 17.2 61 16.1 93 93 Calm 29.76 1008 4 6 0.06 1.52
9:16 pm 21:16 Mostly Cloudy with Light Rain 63 17 61 16 94 94 NW 13 20 29.74 1007 10 16 0.00 0.00
9:53 pm 21:53 Mostly Cloudy with Nearby Thunderstorms 61 16.1 59 15 93 93 NNE 5 7 29.78 1008 10 16 0.01 0.25
10:07 pm 22:07 Partly Cloudy 61 16.1 59 15 93 93 NNW 5 7 29.77 1008 10 16 0.00 0.03
10:53 pm 22:53 Mostly Cloudy 61 16.1 59 15 93 93 NNE 5 7 29.79 1009 10 16 0.00 0.03
11:53 pm 23:53 Clear 61 16.1 60 15.6 97 97 ESE 5 7 29.76 1008 10 16 0.00 0.00

Powered by AerisWeather